owner,sensor,date,latitude,longitude,vertical_datum,wind_speed,wind_to_direction,wind_speed_of_gust,qcFlag 
ADCP,ioos:station:wmo:42361:1,2009-03-01T00:30:00Z,27.5500,-92.4900,122.0,2.2,70.0,99.0,'11111222,11111222,11144222' 
ADCP,ioos:station:wmo:42361:1,2009-03-01T01:30:00Z,27.5500,-92.4900,122.0,3.6,130.0,99.0,'11111222,11111222,11144222' 
ADCP,ioos:station:wmo:42361:1,2009-03-01T02:30:00Z,27.5500,-92.4900,122.0,2.4,100.0,99.0,'11111222,11111222,11144222' 
ADCP,ioos:station:wmo:42361:1,2009-03-01T03:30:00Z,27.5500,-92.4900,122.0,3.3,120.0,99.0,'11111222,11111222,11144222' 
ADCP,ioos:station:wmo:42361:1,2009-03-01T04:30:00Z,27.5500,-92.4900,122.0,3.8,110.0,99.0,'11111222,11111222,11144222' 
ADCP,ioos:station:wmo:42361:1,2009-03-01T05:30:00Z,27.5500,-92.4900,122.0,3.9,90.0,99.0,'11111222,11111222,11144222' 
ADCP,ioos:station:wmo:42361:1,2009-03-01T06:30:00Z,27.5500,-92.4900,122.0,3.7,100.0,99.0,'11111222,11111222,11144222' 
ADCP,ioos:station:wmo:42361:1,2009-03-01T07:30:00Z,27.5500,-92.4900,122.0,3.6,100.0,99.0,'11111222,11111222,11144222' 
ADCP,ioos:station:wmo:42361:1,2009-03-01T08:30:00Z,27.5500,-92.4900,122.0,3.2,90.0,99.0,'11111222,11111222,11144222' 
ADCP,ioos:station:wmo:42361:1,2009-03-01T09:30:00Z,27.5500,-92.4900,122.0,2.9,90.0,99.0,'11111222,11111222,11144222' 
ADCP,ioos:station:wmo:42361:1,2009-03-01T10:30:00Z,27.5500,-92.4900,122.0,3.3,100.0,99.0,'11111222,11111222,11144222' 
ADCP,ioos:station:wmo:42361:1,2009-03-01T11:30:00Z,27.5500,-92.4900,122.0,3.7,100.0,99.0,'11111222,11111222,11144222' 
ADCP,ioos:station:wmo:42361:1,2009-03-01T12:30:00Z,27.5500,-92.4900,122.0,3.3,100.0,99.0,'11111222,11111222,11144222' 
ADCP,ioos:station:wmo:42361:1,2009-03-01T13:30:00Z,27.5500,-92.4900,122.0,3.5,120.0,99.0,'11111222,11111222,11144222' 
ADCP,ioos:station:wmo:42361:1,2009-03-01T14:30:00Z,27.5500,-92.4900,122.0,3.4,120.0,99.0,'11111222,11111222,11144222' 
ADCP,ioos:station:wmo:42361:1,2009-03-01T15:30:00Z,27.5500,-92.4900,122.0,3.3,140.0,99.0,'11111222,11111222,11144222' 
ADCP,ioos:station:wmo:42361:1,2009-03-01T16:30:00Z,27.5500,-92.4900,122.0,3.0,120.0,99.0,'11111222,11111222,11144222' 
ADCP,ioos:station:wmo:42361:1,2009-03-01T17:30:00Z,27.5500,-92.4900,122.0,3.0,120.0,99.0,'11111222,11111222,11144222' 
ADCP,ioos:station:wmo:42361:1,2009-03-01T18:30:00Z,27.5500,-92.4900,122.0,2.0,90.0,99.0,'11111222,11111222,11144222' 
ADCP,ioos:station:wmo:42361:1,2009-03-01T19:30:00Z,27.5500,-92.4900,122.0,0.9,40.0,99.0,'11111222,11111222,11144222' 
ADCP,ioos:station:wmo:42361:1,2009-03-01T20:30:00Z,27.5500,-92.4900,122.0,0.8,30.0,99.0,'11111222,11111222,11144222' 
ADCP,ioos:station:wmo:42361:1,2009-03-01T21:30:00Z,27.5500,-92.4900,122.0,0.7,20.0,99.0,'11111222,11111222,11144222' 
ADCP,ioos:station:wmo:42361:1,2009-03-01T22:30:00Z,27.5500,-92.4900,122.0,0.6,20.0,99.0,'11111222,11111222,11144222' 
ADCP,ioos:station:wmo:42361:1,2009-03-01T23:30:00Z,27.5500,-92.4900,122.0,0.4,10.0,99.0,'11111222,11111222,11144222' 
ADCP,ioos:station:wmo:42361:1,2009-03-02T00:30:00Z,27.5500,-92.4900,122.0,0.3,10.0,99.0,'11111222,11111222,11144222' 
ADCP,ioos:station:wmo:42361:1,2009-03-02T01:30:00Z,27.5500,-92.4900,122.0,0.4,10.0,99.0,'11111222,11111222,11144222' 
ADCP,ioos:station:wmo:42361:1,2009-03-02T02:30:00Z,27.5500,-92.4900,122.0,0.1,-9999.0,99.0,'11111222,99999999,11144222' 
ADCP,ioos:station:wmo:42361:1,2009-03-02T03:30:00Z,27.5500,-92.4900,122.0,0.5,20.0,99.0,'11111222,11111222,11144222' 
ADCP,ioos:station:wmo:42361:1,2009-03-02T04:30:00Z,27.5500,-92.4900,122.0,0.6,20.0,99.0,'11111222,11111222,11144222' 
ADCP,ioos:station:wmo:42361:1,2009-03-02T05:30:00Z,27.5500,-92.4900,122.0,2.1,110.0,99.0,'11111222,11111222,11144222' 
ADCP,ioos:station:wmo:42361:1,2009-03-02T06:30:00Z,27.5500,-92.4900,122.0,2.1,130.0,99.0,'11111222,11111222,11144222' 
ADCP,ioos:station:wmo:42361:1,2009-03-02T07:30:00Z,27.5500,-92.4900,122.0,1.3,80.0,99.0,'11111222,11111222,11144222' 
ADCP,ioos:station:wmo:42361:1,2009-03-02T08:30:00Z,27.5500,-92.4900,122.0,0.7,40.0,99.0,'11111222,11111222,11144222' 
ADCP,ioos:station:wmo:42361:1,2009-03-02T09:30:00Z,27.5500,-92.4900,122.0,0.4,30.0,99.0,'11111222,11111222,11144222' 
ADCP,ioos:station:wmo:42361:1,2009-03-02T10:30:00Z,27.5500,-92.4900,122.0,0.0,0.0,99.0,'11111222,11111222,11144222' 
ADCP,ioos:station:wmo:42361:1,2009-03-02T11:30:00Z,27.5500,-92.4900,122.0,0.3,30.0,99.0,'11111222,11111222,11144222' 
ADCP,ioos:station:wmo:42361:1,2009-03-02T12:30:00Z,27.5500,-92.4900,122.0,0.1,-9999.0,99.0,'11111222,99999999,11144222' 
ADCP,ioos:station:wmo:42361:1,2009-03-02T13:30:00Z,27.5500,-92.4900,122.0,0.3,-9999.0,99.0,'11111222,99999999,11144222' 
ADCP,ioos:station:wmo:42361:1,2009-03-02T14:30:00Z,27.5500,-92.4900,122.0,0.6,10.0,99.0,'11111222,11111222,11144222' 
ADCP,ioos:station:wmo:42361:1,2009-03-02T15:30:00Z,27.5500,-92.4900,122.0,0.0,0.0,99.0,'11111222,11111222,11144222' 
ADCP,ioos:station:wmo:42361:1,2009-03-02T16:30:00Z,27.5500,-92.4900,122.0,0.3,-9999.0,99.0,'11111222,99999999,11144222' 
ADCP,ioos:station:wmo:42361:1,2009-03-02T17:30:00Z,27.5500,-92.4900,122.0,0.4,-9999.0,99.0,'11111222,99999999,11144222' 
ADCP,ioos:station:wmo:42361:1,2009-03-02T18:30:00Z,27.5500,-92.4900,122.0,0.7,10.0,99.0,'11111222,11111222,11144222' 
ADCP,ioos:station:wmo:42361:1,2009-03-02T19:30:00Z,27.5500,-92.4900,122.0,0.2,20.0,99.0,'11111222,11111222,11144222' 
ADCP,ioos:station:wmo:42361:1,2009-03-02T20:30:00Z,27.5500,-92.4900,122.0,0.2,20.0,99.0,'11111222,11111222,11144222' 
ADCP,ioos:station:wmo:42361:1,2009-03-02T21:30:00Z,27.5500,-92.4900,122.0,0.0,0.0,99.0,'11111222,11111222,11144222' 
ADCP,ioos:station:wmo:42361:1,2009-03-02T22:30:00Z,27.5500,-92.4900,122.0,0.3,30.0,99.0,'11111222,11111222,11144222' 
ADCP,ioos:station:wmo:42361:1,2009-03-02T23:30:00Z,27.5500,-92.4900,122.0,0.2,20.0,99.0,'11111222,11111222,11144222' 
ADCP,ioos:station:wmo:42361:1,2009-03-03T00:30:00Z,27.5500,-92.4900,122.0,0.0,0.0,99.0,'11111222,11111222,11144222' 
ADCP,ioos:station:wmo:42361:1,2009-03-03T01:30:00Z,27.5500,-92.4900,122.0,0.0,0.0,99.0,'11111222,11111222,11144222' 
ADCP,ioos:station:wmo:42361:1,2009-03-03T02:30:00Z,27.5500,-92.4900,122.0,0.0,0.0,99.0,'11111222,11111222,11144222' 
ADCP,ioos:station:wmo:42361:1,2009-03-03T03:30:00Z,27.5500,-92.4900,122.0,0.0,0.0,99.0,'11111222,11111222,11144222' 
ADCP,ioos:station:wmo:42361:1,2009-03-03T04:30:00Z,27.5500,-92.4900,122.0,1.3,10.0,99.0,'11111222,11111222,11144222' 
ADCP,ioos:station:wmo:42361:1,2009-03-03T05:30:00Z,27.5500,-92.4900,122.0,2.4,30.0,99.0,'11111222,11111222,11144222' 
ADCP,ioos:station:wmo:42361:1,2009-03-03T06:30:00Z,27.5500,-92.4900,122.0,1.5,20.0,99.0,'11111222,11111222,11144222' 
ADCP,ioos:station:wmo:42361:1,2009-03-03T07:30:00Z,27.5500,-92.4900,122.0,4.3,50.0,99.0,'11111222,11111222,11144222' 
ADCP,ioos:station:wmo:42361:1,2009-03-03T08:30:00Z,27.5500,-92.4900,122.0,4.4,60.0,99.0,'11111222,11111222,11144222' 
ADCP,ioos:station:wmo:42361:1,2009-03-03T09:30:00Z,27.5500,-92.4900,122.0,4.2,50.0,99.0,'11111222,11111222,11144222' 
ADCP,ioos:station:wmo:42361:1,2009-03-03T10:30:00Z,27.5500,-92.4900,122.0,4.8,60.0,99.0,'11111222,11111222,11144222' 
ADCP,ioos:station:wmo:42361:1,2009-03-03T11:30:00Z,27.5500,-92.4900,122.0,5.3,60.0,99.0,'11111222,11111222,11144222' 
ADCP,ioos:station:wmo:42361:1,2009-03-03T12:30:00Z,27.5500,-92.4900,122.0,5.0,60.0,99.0,'11111222,11111222,11144222' 
ADCP,ioos:station:wmo:42361:1,2009-03-03T13:30:00Z,27.5500,-92.4900,122.0,5.9,70.0,99.0,'11111222,11111222,11144222' 
ADCP,ioos:station:wmo:42361:1,2009-03-03T14:30:00Z,27.5500,-92.4900,122.0,6.2,60.0,99.0,'11111222,11111222,11144222' 
ADCP,ioos:station:wmo:42361:1,2009-03-03T15:30:00Z,27.5500,-92.4900,122.0,7.0,60.0,99.0,'11111222,11111222,11144222' 
ADCP,ioos:station:wmo:42361:1,2009-03-03T16:30:00Z,27.5500,-92.4900,122.0,8.6,60.0,99.0,'11111222,11111222,11144222' 
ADCP,ioos:station:wmo:42361:1,2009-03-03T17:30:00Z,27.5500,-92.4900,122.0,8.0,70.0,99.0,'11111222,11111222,11144222' 
ADCP,ioos:station:wmo:42361:1,2009-03-03T18:30:00Z,27.5500,-92.4900,122.0,8.6,70.0,99.0,'11111222,11111222,11144222' 
ADCP,ioos:station:wmo:42361:1,2009-03-03T19:30:00Z,27.5500,-92.4900,122.0,8.0,80.0,99.0,'11111222,11111222,11144222' 
ADCP,ioos:station:wmo:42361:1,2009-03-03T20:30:00Z,27.5500,-92.4900,122.0,8.2,90.0,99.0,'11111222,11111222,11144222' 
ADCP,ioos:station:wmo:42361:1,2009-03-03T21:30:00Z,27.5500,-92.4900,122.0,7.0,90.0,99.0,'11111222,11111222,11144222' 
ADCP,ioos:station:wmo:42361:1,2009-03-03T22:30:00Z,27.5500,-92.4900,122.0,7.2,90.0,99.0,'11111222,11111222,11144222' 
ADCP,ioos:station:wmo:42361:1,2009-03-03T23:30:00Z,27.5500,-92.4900,122.0,7.6,80.0,99.0,'11111222,11111222,11144222' 
ADCP,ioos:station:wmo:42361:1,2009-03-04T00:30:00Z,27.5500,-92.4900,122.0,8.8,80.0,99.0,'11111222,11111222,11144222' 
ADCP,ioos:station:wmo:42361:1,2009-03-04T01:30:00Z,27.5500,-92.4900,122.0,9.1,90.0,99.0,'11111222,11111222,11144222' 
ADCP,ioos:station:wmo:42361:1,2009-03-04T02:30:00Z,27.5500,-92.4900,122.0,9.9,100.0,99.0,'11111222,11111222,11144222' 
ADCP,ioos:station:wmo:42361:1,2009-03-04T03:30:00Z,27.5500,-92.4900,122.0,10.1,100.0,99.0,'11111222,11111222,11144222' 
ADCP,ioos:station:wmo:42361:1,2009-03-04T04:30:00Z,27.5500,-92.4900,122.0,11.1,100.0,99.0,'11111222,11111222,11144222' 
ADCP,ioos:station:wmo:42361:1,2009-03-04T05:30:00Z,27.5500,-92.4900,122.0,11.4,100.0,99.0,'11111222,11111222,11144222' 
ADCP,ioos:station:wmo:42361:1,2009-03-04T06:30:00Z,27.5500,-92.4900,122.0,10.6,110.0,99.0,'11111222,11111222,11144222' 
ADCP,ioos:station:wmo:42361:1,2009-03-04T07:30:00Z,27.5500,-92.4900,122.0,10.0,140.0,99.0,'11111222,11111222,11144222' 
ADCP,ioos:station:wmo:42361:1,2009-03-04T08:30:00Z,27.5500,-92.4900,122.0,11.1,140.0,99.0,'11111222,11111222,11144222' 
ADCP,ioos:station:wmo:42361:1,2009-03-04T09:30:00Z,27.5500,-92.4900,122.0,11.6,170.0,99.0,'11111222,11111222,11144222' 
ADCP,ioos:station:wmo:42361:1,2009-03-04T10:30:00Z,27.5500,-92.4900,122.0,12.0,180.0,99.0,'11111222,11111222,11144222' 
ADCP,ioos:station:wmo:42361:1,2009-03-04T11:30:00Z,27.5500,-92.4900,122.0,11.5,180.0,99.0,'11111222,11111222,11144222' 
ADCP,ioos:station:wmo:42361:1,2009-03-04T12:30:00Z,27.5500,-92.4900,122.0,10.5,170.0,99.0,'11111222,11111222,11144222' 
ADCP,ioos:station:wmo:42361:1,2009-03-04T13:30:00Z,27.5500,-92.4900,122.0,10.5,150.0,99.0,'11111222,11111222,11144222' 
ADCP,ioos:station:wmo:42361:1,2009-03-04T14:30:00Z,27.5500,-92.4900,122.0,10.3,160.0,99.0,'11111222,11111222,11144222' 
ADCP,ioos:station:wmo:42361:1,2009-03-04T15:30:00Z,27.5500,-92.4900,122.0,10.6,160.0,99.0,'11111222,11111222,11144222' 
ADCP,ioos:station:wmo:42361:1,2009-03-04T16:30:00Z,27.5500,-92.4900,122.0,8.9,160.0,99.0,'11111222,11111222,11144222' 
ADCP,ioos:station:wmo:42361:1,2009-03-04T17:30:00Z,27.5500,-92.4900,122.0,9.2,160.0,99.0,'11111222,11111222,11144222' 
ADCP,ioos:station:wmo:42361:1,2009-03-04T18:30:00Z,27.5500,-92.4900,122.0,9.9,150.0,99.0,'11111222,11111222,11144222' 
ADCP,ioos:station:wmo:42361:1,2009-03-04T19:30:00Z,27.5500,-92.4900,122.0,8.6,150.0,99.0,'11111222,11111222,11144222' 
ADCP,ioos:station:wmo:42361:1,2009-03-04T20:30:00Z,27.5500,-92.4900,122.0,8.9,180.0,99.0,'11111222,11111222,11144222' 
ADCP,ioos:station:wmo:42361:1,2009-03-04T21:30:00Z,27.5500,-92.4900,122.0,8.5,150.0,99.0,'11111222,11111222,11144222' 
ADCP,ioos:station:wmo:42361:1,2009-03-04T22:30:00Z,27.5500,-92.4900,122.0,7.0,130.0,99.0,'11111222,11111222,11144222' 
ADCP,ioos:station:wmo:42361:1,2009-03-04T23:30:00Z,27.5500,-92.4900,122.0,8.4,150.0,99.0,'11111222,11111222,11144222' 
ADCP,ioos:station:wmo:42361:1,2009-03-05T00:30:00Z,27.5500,-92.4900,122.0,10.9,140.0,99.0,'11111222,11111222,11144222' 
ADCP,ioos:station:wmo:42361:1,2009-03-05T01:30:00Z,27.5500,-92.4900,122.0,10.8,140.0,99.0,'11111222,11111222,11144222' 
ADCP,ioos:station:wmo:42361:1,2009-03-05T02:30:00Z,27.5500,-92.4900,122.0,11.5,120.0,99.0,'11111222,11111222,11144222' 
ADCP,ioos:station:wmo:42361:1,2009-03-05T03:30:00Z,27.5500,-92.4900,122.0,11.5,140.0,99.0,'11111222,11111222,11144222' 
ADCP,ioos:station:wmo:42361:1,2009-03-05T04:30:00Z,27.5500,-92.4900,122.0,15.0,110.0,99.0,'11111222,11111222,11144222' 
ADCP,ioos:station:wmo:42361:1,2009-03-05T05:30:00Z,27.5500,-92.4900,122.0,16.3,110.0,99.0,'11111222,11111222,11144222' 
ADCP,ioos:station:wmo:42361:1,2009-03-05T06:30:00Z,27.5500,-92.4900,122.0,15.9,110.0,99.0,'11111222,11111222,11144222' 
ADCP,ioos:station:wmo:42361:1,2009-03-05T07:30:00Z,27.5500,-92.4900,122.0,16.7,100.0,99.0,'11111222,11111222,11144222' 
ADCP,ioos:station:wmo:42361:1,2009-03-05T08:30:00Z,27.5500,-92.4900,122.0,17.3,110.0,99.0,'11111222,11111222,11144222' 
ADCP,ioos:station:wmo:42361:1,2009-03-05T09:30:00Z,27.5500,-92.4900,122.0,17.1,120.0,99.0,'11111222,11111222,11144222' 
ADCP,ioos:station:wmo:42361:1,2009-03-05T10:30:00Z,27.5500,-92.4900,122.0,16.7,110.0,99.0,'11111222,11111222,11144222' 
ADCP,ioos:station:wmo:42361:1,2009-03-05T11:30:00Z,27.5500,-92.4900,122.0,15.9,140.0,99.0,'11111222,11111222,11144222' 
ADCP,ioos:station:wmo:42361:1,2009-03-05T12:30:00Z,27.5500,-92.4900,122.0,14.4,160.0,99.0,'11111222,11111222,11144222' 
ADCP,ioos:station:wmo:42361:1,2009-03-05T13:30:00Z,27.5500,-92.4900,122.0,13.8,140.0,99.0,'11111222,11111222,11144222' 
ADCP,ioos:station:wmo:42361:1,2009-03-05T14:30:00Z,27.5500,-92.4900,122.0,13.6,140.0,99.0,'11111222,11111222,11144222' 
ADCP,ioos:station:wmo:42361:1,2009-03-05T15:30:00Z,27.5500,-92.4900,122.0,13.0,140.0,99.0,'11111222,11111222,11144222' 
ADCP,ioos:station:wmo:42361:1,2009-03-05T16:30:00Z,27.5500,-92.4900,122.0,13.7,110.0,99.0,'11111222,11111222,11144222' 
ADCP,ioos:station:wmo:42361:1,2009-03-05T17:30:00Z,27.5500,-92.4900,122.0,17.4,140.0,99.0,'11111222,11111222,11144222' 
ADCP,ioos:station:wmo:42361:1,2009-03-05T18:30:00Z,27.5500,-92.4900,122.0,14.7,140.0,99.0,'11111222,11111222,11144222' 
ADCP,ioos:station:wmo:42361:1,2009-03-05T19:30:00Z,27.5500,-92.4900,122.0,12.0,130.0,99.0,'11111222,11111222,11144222' 
ADCP,ioos:station:wmo:42361:1,2009-03-05T20:30:00Z,27.5500,-92.4900,122.0,12.4,150.0,99.0,'11111222,11111222,11144222' 
ADCP,ioos:station:wmo:42361:1,2009-03-05T21:30:00Z,27.5500,-92.4900,122.0,10.1,170.0,99.0,'11111222,11111222,11144222' 
ADCP,ioos:station:wmo:42361:1,2009-03-05T22:30:00Z,27.5500,-92.4900,122.0,9.0,180.0,99.0,'11111222,11111222,11144222' 
ADCP,ioos:station:wmo:42361:1,2009-03-05T23:30:00Z,27.5500,-92.4900,122.0,8.8,170.0,99.0,'11111222,11111222,11144222' 
ADCP,ioos:station:wmo:42361:1,2009-03-06T00:30:00Z,27.5500,-92.4900,122.0,8.0,160.0,99.0,'11111222,11111222,11144222' 
ADCP,ioos:station:wmo:42361:1,2009-03-06T01:30:00Z,27.5500,-92.4900,122.0,8.0,160.0,99.0,'11111222,11111222,11144222' 
ADCP,ioos:station:wmo:42361:1,2009-03-06T02:30:00Z,27.5500,-92.4900,122.0,9.3,150.0,99.0,'11111222,11111222,11144222' 
ADCP,ioos:station:wmo:42361:1,2009-03-06T03:30:00Z,27.5500,-92.4900,122.0,10.4,150.0,99.0,'11111222,11111222,11144222' 
ADCP,ioos:station:wmo:42361:1,2009-03-06T04:30:00Z,27.5500,-92.4900,122.0,12.0,160.0,99.0,'11111222,11111222,11144222' 
ADCP,ioos:station:wmo:42361:1,2009-03-06T05:30:00Z,27.5500,-92.4900,122.0,12.0,160.0,99.0,'11111222,11111222,11144222' 
ADCP,ioos:station:wmo:42361:1,2009-03-06T06:30:00Z,27.5500,-92.4900,122.0,13.6,140.0,99.0,'11111222,11111222,11144222' 
ADCP,ioos:station:wmo:42361:1,2009-03-06T07:30:00Z,27.5500,-92.4900,122.0,13.1,150.0,99.0,'11111222,11111222,11144222' 
ADCP,ioos:station:wmo:42361:1,2009-03-06T08:30:00Z,27.5500,-92.4900,122.0,11.4,150.0,99.0,'11111222,11111222,11144222' 
ADCP,ioos:station:wmo:42361:1,2009-03-06T09:30:00Z,27.5500,-92.4900,122.0,13.3,190.0,99.0,'11111222,11111222,11144222' 
ADCP,ioos:station:wmo:42361:1,2009-03-06T10:30:00Z,27.5500,-92.4900,122.0,12.3,200.0,99.0,'11111222,11111222,11144222' 
ADCP,ioos:station:wmo:42361:1,2009-03-06T11:30:00Z,27.5500,-92.4900,122.0,11.5,200.0,99.0,'11111222,11111222,11144222' 
ADCP,ioos:station:wmo:42361:1,2009-03-06T12:30:00Z,27.5500,-92.4900,122.0,10.3,190.0,99.0,'11111222,11111222,11144222' 
ADCP,ioos:station:wmo:42361:1,2009-03-06T13:30:00Z,27.5500,-92.4900,122.0,7.7,180.0,99.0,'11111222,11111222,11144222' 
ADCP,ioos:station:wmo:42361:1,2009-03-06T14:30:00Z,27.5500,-92.4900,122.0,5.9,160.0,99.0,'11111222,11111222,11144222' 
ADCP,ioos:station:wmo:42361:1,2009-03-06T15:30:00Z,27.5500,-92.4900,122.0,5.2,150.0,99.0,'11111222,11111222,11144222' 
ADCP,ioos:station:wmo:42361:1,2009-03-06T16:30:00Z,27.5500,-92.4900,122.0,4.8,150.0,99.0,'11111222,11111222,11144222' 
ADCP,ioos:station:wmo:42361:1,2009-03-06T17:30:00Z,27.5500,-92.4900,122.0,5.6,120.0,99.0,'11111222,11111222,11144222' 
ADCP,ioos:station:wmo:42361:1,2009-03-06T18:30:00Z,27.5500,-92.4900,122.0,7.1,110.0,99.0,'11111222,11111222,11144222' 
ADCP,ioos:station:wmo:42361:1,2009-03-06T19:30:00Z,27.5500,-92.4900,122.0,8.4,140.0,99.0,'11111222,11111222,11144222' 
ADCP,ioos:station:wmo:42361:1,2009-03-06T20:30:00Z,27.5500,-92.4900,122.0,9.5,180.0,99.0,'11111222,11111222,11144222' 
ADCP,ioos:station:wmo:42361:1,2009-03-06T21:30:00Z,27.5500,-92.4900,122.0,8.4,170.0,99.0,'11111222,11111222,11144222' 
ADCP,ioos:station:wmo:42361:1,2009-03-06T22:30:00Z,27.5500,-92.4900,122.0,8.0,140.0,99.0,'11111222,11111222,11144222' 
ADCP,ioos:station:wmo:42361:1,2009-03-06T23:30:00Z,27.5500,-92.4900,122.0,8.7,120.0,99.0,'11111222,11111222,11144222' 
ADCP,ioos:station:wmo:42361:1,2009-03-07T00:30:00Z,27.5500,-92.4900,122.0,10.6,110.0,99.0,'11111222,11111222,11144222' 
ADCP,ioos:station:wmo:42361:1,2009-03-07T01:30:00Z,27.5500,-92.4900,122.0,12.9,110.0,99.0,'11111222,11111222,11144222' 
ADCP,ioos:station:wmo:42361:1,2009-03-07T02:30:00Z,27.5500,-92.4900,122.0,13.2,100.0,99.0,'11111222,11111222,11144222' 
ADCP,ioos:station:wmo:42361:1,2009-03-07T03:30:00Z,27.5500,-92.4900,122.0,12.8,110.0,99.0,'11111222,11111222,11144222' 
ADCP,ioos:station:wmo:42361:1,2009-03-07T04:30:00Z,27.5500,-92.4900,122.0,11.7,110.0,99.0,'11111222,11111222,11144222' 
ADCP,ioos:station:wmo:42361:1,2009-03-07T05:30:00Z,27.5500,-92.4900,122.0,13.6,130.0,99.0,'11111222,11111222,11144222' 
ADCP,ioos:station:wmo:42361:1,2009-03-07T06:30:00Z,27.5500,-92.4900,122.0,14.6,140.0,99.0,'11111222,11111222,11144222' 
ADCP,ioos:station:wmo:42361:1,2009-03-07T07:30:00Z,27.5500,-92.4900,122.0,14.4,130.0,99.0,'11111222,11111222,11144222' 
ADCP,ioos:station:wmo:42361:1,2009-03-07T08:30:00Z,27.5500,-92.4900,122.0,14.8,130.0,99.0,'11111222,11111222,11144222' 
ADCP,ioos:station:wmo:42361:1,2009-03-07T09:30:00Z,27.5500,-92.4900,122.0,14.0,120.0,99.0,'11111222,11111222,11144222' 
ADCP,ioos:station:wmo:42361:1,2009-03-07T10:30:00Z,27.5500,-92.4900,122.0,13.1,120.0,99.0,'11111222,11111222,11144222' 
ADCP,ioos:station:wmo:42361:1,2009-03-07T11:30:00Z,27.5500,-92.4900,122.0,12.7,120.0,99.0,'11111222,11111222,11144222' 
ADCP,ioos:station:wmo:42361:1,2009-03-07T12:30:00Z,27.5500,-92.4900,122.0,15.6,110.0,99.0,'11111222,11111222,11144222' 
ADCP,ioos:station:wmo:42361:1,2009-03-07T13:30:00Z,27.5500,-92.4900,122.0,16.9,110.0,99.0,'11111222,11111222,11144222' 
ADCP,ioos:station:wmo:42361:1,2009-03-07T14:30:00Z,27.5500,-92.4900,122.0,16.1,120.0,99.0,'11111222,11111222,11144222' 
ADCP,ioos:station:wmo:42361:1,2009-03-07T15:30:00Z,27.5500,-92.4900,122.0,15.1,140.0,99.0,'11111222,11111222,11144222' 
ADCP,ioos:station:wmo:42361:1,2009-03-07T16:30:00Z,27.5500,-92.4900,122.0,16.7,130.0,99.0,'11111222,11111222,11144222' 
ADCP,ioos:station:wmo:42361:1,2009-03-07T17:30:00Z,27.5500,-92.4900,122.0,16.8,150.0,99.0,'11111222,11111222,11144222' 
ADCP,ioos:station:wmo:42361:1,2009-03-07T18:30:00Z,27.5500,-92.4900,122.0,16.4,150.0,99.0,'11111222,11111222,11144222' 
ADCP,ioos:station:wmo:42361:1,2009-03-07T19:30:00Z,27.5500,-92.4900,122.0,16.0,150.0,99.0,'11111222,11111222,11144222' 
ADCP,ioos:station:wmo:42361:1,2009-03-07T20:30:00Z,27.5500,-92.4900,122.0,16.2,170.0,99.0,'11111222,11111222,11144222' 
ADCP,ioos:station:wmo:42361:1,2009-03-07T21:30:00Z,27.5500,-92.4900,122.0,14.8,170.0,99.0,'11111222,11111222,11144222' 
ADCP,ioos:station:wmo:42361:1,2009-03-07T22:30:00Z,27.5500,-92.4900,122.0,14.4,160.0,99.0,'11111222,11111222,11144222' 
ADCP,ioos:station:wmo:42361:1,2009-03-07T23:30:00Z,27.5500,-92.4900,122.0,13.4,160.0,99.0,'11111222,11111222,11144222' 
ADCP,ioos:station:wmo:42361:1,2009-03-08T00:30:00Z,27.5500,-92.4900,122.0,12.7,160.0,99.0,'11111222,11111222,11144222' 
ADCP,ioos:station:wmo:42361:1,2009-03-08T01:30:00Z,27.5500,-92.4900,122.0,13.0,140.0,99.0,'11111222,11111222,11144222' 
ADCP,ioos:station:wmo:42361:1,2009-03-08T02:30:00Z,27.5500,-92.4900,122.0,10.8,150.0,99.0,'11111222,11111222,11144222' 
ADCP,ioos:station:wmo:42361:1,2009-03-08T03:30:00Z,27.5500,-92.4900,122.0,11.5,150.0,99.0,'11111222,11111222,11144222' 
ADCP,ioos:station:wmo:42361:1,2009-03-08T04:30:00Z,27.5500,-92.4900,122.0,11.3,150.0,99.0,'11111222,11111222,11144222' 
ADCP,ioos:station:wmo:42361:1,2009-03-08T05:30:00Z,27.5500,-92.4900,122.0,11.5,150.0,99.0,'11111222,11111222,11144222' 
ADCP,ioos:station:wmo:42361:1,2009-03-08T06:30:00Z,27.5500,-92.4900,122.0,13.8,140.0,99.0,'11111222,11111222,11144222' 
ADCP,ioos:station:wmo:42361:1,2009-03-08T07:30:00Z,27.5500,-92.4900,122.0,12.9,160.0,99.0,'11111222,11111222,11144222' 
ADCP,ioos:station:wmo:42361:1,2009-03-08T08:30:00Z,27.5500,-92.4900,122.0,12.5,160.0,99.0,'11111222,11111222,11144222' 
ADCP,ioos:station:wmo:42361:1,2009-03-08T09:30:00Z,27.5500,-92.4900,122.0,13.3,160.0,99.0,'11111222,11111222,11144222' 
ADCP,ioos:station:wmo:42361:1,2009-03-08T10:30:00Z,27.5500,-92.4900,122.0,13.2,160.0,99.0,'11111222,11111222,11144222' 
ADCP,ioos:station:wmo:42361:1,2009-03-08T11:30:00Z,27.5500,-92.4900,122.0,14.6,150.0,99.0,'11111222,11111222,11144222' 
ADCP,ioos:station:wmo:42361:1,2009-03-08T12:30:00Z,27.5500,-92.4900,122.0,16.4,160.0,99.0,'11111222,11111222,11144222' 
ADCP,ioos:station:wmo:42361:1,2009-03-08T13:30:00Z,27.5500,-92.4900,122.0,14.2,170.0,99.0,'11111222,11111222,11144222' 
ADCP,ioos:station:wmo:42361:1,2009-03-08T14:30:00Z,27.5500,-92.4900,122.0,12.3,170.0,99.0,'11111222,11111222,11144222' 
ADCP,ioos:station:wmo:42361:1,2009-03-08T15:30:00Z,27.5500,-92.4900,122.0,9.7,170.0,99.0,'11111222,11111222,11144222' 
ADCP,ioos:station:wmo:42361:1,2009-03-08T16:30:00Z,27.5500,-92.4900,122.0,9.1,180.0,99.0,'11111222,11111222,11144222' 
ADCP,ioos:station:wmo:42361:1,2009-03-08T17:30:00Z,27.5500,-92.4900,122.0,9.2,180.0,99.0,'11111222,11111222,11144222' 
ADCP,ioos:station:wmo:42361:1,2009-03-08T18:30:00Z,27.5500,-92.4900,122.0,10.4,180.0,99.0,'11111222,11111222,11144222' 
ADCP,ioos:station:wmo:42361:1,2009-03-08T19:30:00Z,27.5500,-92.4900,122.0,10.3,170.0,99.0,'11111222,11111222,11144222' 
ADCP,ioos:station:wmo:42361:1,2009-03-08T20:30:00Z,27.5500,-92.4900,122.0,11.3,170.0,99.0,'11111222,11111222,11144222' 
ADCP,ioos:station:wmo:42361:1,2009-03-08T21:30:00Z,27.5500,-92.4900,122.0,9.0,170.0,99.0,'11111222,11111222,11144222' 
ADCP,ioos:station:wmo:42361:1,2009-03-08T22:30:00Z,27.5500,-92.4900,122.0,7.3,160.0,99.0,'11111222,11111222,11144222' 
ADCP,ioos:station:wmo:42361:1,2009-03-08T23:30:00Z,27.5500,-92.4900,122.0,9.2,140.0,99.0,'11111222,11111222,11144222' 
ADCP,ioos:station:wmo:42361:1,2009-03-09T00:30:00Z,27.5500,-92.4900,122.0,9.6,140.0,99.0,'11111222,11111222,11144222' 
ADCP,ioos:station:wmo:42361:1,2009-03-09T01:30:00Z,27.5500,-92.4900,122.0,9.0,120.0,99.0,'11111222,11111222,11144222' 
ADCP,ioos:station:wmo:42361:1,2009-03-09T02:30:00Z,27.5500,-92.4900,122.0,9.1,130.0,99.0,'11111222,11111222,11144222' 
ADCP,ioos:station:wmo:42361:1,2009-03-09T03:30:00Z,27.5500,-92.4900,122.0,10.1,150.0,99.0,'11111222,11111222,11144222' 
ADCP,ioos:station:wmo:42361:1,2009-03-09T04:30:00Z,27.5500,-92.4900,122.0,10.4,140.0,99.0,'11111222,11111222,11144222' 
ADCP,ioos:station:wmo:42361:1,2009-03-09T05:30:00Z,27.5500,-92.4900,122.0,10.4,140.0,99.0,'11111222,11111222,11144222' 
ADCP,ioos:station:wmo:42361:1,2009-03-09T06:30:00Z,27.5500,-92.4900,122.0,9.1,150.0,99.0,'11111222,11111222,11144222' 
ADCP,ioos:station:wmo:42361:1,2009-03-09T07:30:00Z,27.5500,-92.4900,122.0,9.4,150.0,99.0,'11111222,11111222,11144222' 